TimeEST,TemperatureF,Dew PointF,Humidity,Sea Level PressureIn,VisibilityMPH,Wind Direction,Wind SpeedMPH,Gust SpeedMPH,PrecipitationIn,Events,Conditions,WindDirDegrees,DateUTC
12:00 AM,24.8,21.2,86,29.93,1.8,NNW,3.5,-,0.01,Snow,Light Snow,330,2013-02-06 05:00:00
12:12 AM,26.6,21.2,80,29.92,2.5,Calm,Calm,-,0.01,Snow,Light Snow,0,2013-02-06 05:12:00
12:20 AM,26.6,21.2,80,29.92,4.0,North,3.5,-,0.01,Snow,Light Snow,350,2013-02-06 05:20:00
12:29 AM,26.6,21.2,80,29.92,4.0,North,3.5,-,0.01,Snow,Light Snow,350,2013-02-06 05:29:00
12:43 AM,26.6,21.2,80,29.93,4.0,NW,5.8,-,0.01,Snow,Light Snow,320,2013-02-06 05:43:00
12:53 AM,26.1,21.9,84,29.92,4.0,NNW,5.8,-,0.01,Snow,Light Snow,340,2013-02-06 05:53:00
1:07 AM,26.6,23.0,86,29.93,2.5,NNW,4.6,-,0.00,Snow,Light Snow,330,2013-02-06 06:07:00
1:27 AM,26.6,23.0,86,29.93,1.2,NNW,4.6,-,0.01,Snow,Light Snow,330,2013-02-06 06:27:00
1:53 AM,26.1,23.0,88,29.93,1.5,NNW,4.6,-,0.01,Snow,Light Snow,330,2013-02-06 06:53:00
2:06 AM,26.6,21.2,80,29.93,2.5,West,4.6,-,0.00,Snow,Light Snow,280,2013-02-06 07:06:00
2:12 AM,24.8,21.2,86,29.94,1.8,WNW,5.8,-,0.01,Snow,Light Snow,290,2013-02-06 07:12:00
2:23 AM,24.8,21.2,86,29.93,1.5,NW,4.6,-,0.01,Snow,Light Snow,320,2013-02-06 07:23:00
2:28 AM,26.6,21.2,80,29.93,2.0,NW,5.8,-,0.01,Snow,Light Snow,320,2013-02-06 07:28:00
2:53 AM,25.0,21.9,88,29.92,1.8,Calm,Calm,-,0.01,Snow,Light Snow,0,2013-02-06 07:53:00
3:06 AM,26.6,23.0,86,29.92,3.0,Calm,Calm,-,0.00,Snow,Light Snow,0,2013-02-06 08:06:00
3:53 AM,25.0,21.9,88,29.91,5.0,Calm,Calm,-,0.00,Snow,Light Snow,0,2013-02-06 08:53:00
4:01 AM,24.8,21.2,86,29.92,4.0,Calm,Calm,-,0.00,Snow,Light Snow,0,2013-02-06 09:01:00
4:27 AM,24.8,21.2,86,29.92,5.0,Calm,Calm,-,0.00,Snow,Light Snow,0,2013-02-06 09:27:00
4:46 AM,24.8,21.2,86,29.93,6.0,Calm,Calm,-,0.00,,Overcast,0,2013-02-06 09:46:00
4:53 AM,24.1,21.0,88,29.93,6.0,NW,3.5,-,0.00,,Overcast,320,2013-02-06 09:53:00
5:24 AM,24.8,21.2,86,29.94,8.0,Calm,Calm,-,N/A,,Overcast,0,2013-02-06 10:24:00
5:53 AM,25.0,21.9,88,29.94,7.0,NW,5.8,-,N/A,,Overcast,320,2013-02-06 10:53:00
6:24 AM,24.8,21.2,86,29.95,6.0,NNW,3.5,-,N/A,,Overcast,340,2013-02-06 11:24:00
6:53 AM,25.0,21.0,85,29.95,7.0,NW,3.5,-,N/A,,Overcast,310,2013-02-06 11:53:00
7:46 AM,23.0,19.4,86,29.97,5.0,Calm,Calm,-,N/A,,Mostly Cloudy,0,2013-02-06 12:46:00
7:53 AM,23.0,19.9,88,29.97,5.0,Calm,Calm,-,N/A,,Scattered Clouds,0,2013-02-06 12:53:00
8:53 AM,27.0,23.0,85,29.98,9.0,Calm,Calm,-,N/A,,Partly Cloudy,0,2013-02-06 13:53:00
9:53 AM,30.0,23.0,75,29.99,10.0,WSW,5.8,-,N/A,,Overcast,250,2013-02-06 14:53:00
10:53 AM,32.0,23.0,69,29.97,10.0,West,6.9,-,N/A,,Partly Cloudy,260,2013-02-06 15:53:00
11:53 AM,36.0,23.0,59,29.97,10.0,West,11.5,-,N/A,,Clear,270,2013-02-06 16:53:00
12:53 PM,39.0,21.0,49,29.95,10.0,West,15.0,21.9,N/A,,Mostly Cloudy,260,2013-02-06 17:53:00
1:53 PM,37.0,16.0,42,29.98,10.0,West,15.0,25.3,N/A,,Scattered Clouds,270,2013-02-06 18:53:00
2:53 PM,39.0,17.1,41,29.99,10.0,West,13.8,21.9,N/A,,Overcast,260,2013-02-06 19:53:00
3:53 PM,37.0,15.1,41,30.01,10.0,WSW,12.7,20.7,N/A,,Mostly Cloudy,250,2013-02-06 20:53:00
4:53 PM,35.1,14.0,42,30.03,10.0,West,8.1,-,N/A,,Clear,280,2013-02-06 21:53:00
5:53 PM,34.0,12.9,42,30.07,10.0,West,8.1,-,N/A,,Partly Cloudy,270,2013-02-06 22:53:00
6:53 PM,32.0,12.0,44,30.12,10.0,West,4.6,-,N/A,,Clear,260,2013-02-06 23:53:00
7:53 PM,30.9,10.0,42,30.15,10.0,West,8.1,-,N/A,,Clear,280,2013-02-07 00:53:00
8:53 PM,30.0,6.1,36,30.18,10.0,WNW,5.8,-,N/A,,Clear,300,2013-02-07 01:53:00
9:53 PM,27.0,5.0,39,30.22,10.0,West,5.8,-,N/A,,Clear,270,2013-02-07 02:53:00
10:53 PM,26.1,10.0,51,30.26,10.0,NW,9.2,-,N/A,,Clear,320,2013-02-07 03:53:00
11:53 PM,24.1,8.1,51,30.27,10.0,North,6.9,-,N/A,,Clear,350,2013-02-07 04:53:00